This demonstration page uses our WeatherBlox Daily Observations layout. Learn more.

Left ArrowRight Arrow

41.12389, -100.76542

Hourly Observations for November 2, 2015

Temp ( °F °C ) Dew Point ( °F °C ) Humidity (%) Winds ( mph kmh ) Pressure ( in mb ) Visibility ( mi km ) Precip ( " mm )
12:53 am 00:53 Clear 38 3.3 34 1.1 86 86 WNW 3 6 29.80 1009 10 16 0.00 0.00
1:53 am 01:53 Clear 38 3.3 33 0.6 83 83 NW 6 9 29.80 1009 10 16 0.00 0.00
2:53 am 02:53 Clear 38 3.3 33 0.6 83 83 WNW 6 9 29.80 1009 10 16 0.00 0.00
3:53 am 03:53 Clear 40 4.4 35 1.7 83 83 W 6 9 29.80 1009 10 16 0.00 0.00
4:53 am 04:53 Clear 36 2.2 33 0.6 89 89 NW 5 7 29.82 1010 10 16 0.00 0.00
5:53 am 05:53 Clear 35 1.7 32 0 89 89 Calm 29.85 1011 10 16 0.00 0.00
6:53 am 06:53 Clear 34 1.1 31 -0.6 89 89 WNW 5 7 29.87 1012 10 16 0.00 0.00
7:53 am 07:53 Sunny 40 4.4 35 1.7 83 83 Calm 29.87 1011 10 16 0.00 0.00
8:53 am 08:53 Sunny 47 8.3 40 4.4 77 77 WNW 5 7 29.86 1011 10 16 0.00 0.00
9:53 am 09:53 Sunny 57 13.9 42 5.6 58 58 NW 3 6 29.85 1011 10 16 0.00 0.00
10:53 am 10:53 Sunny 65 18.3 43 6.1 45 45 NW 5 7 29.85 1011 10 16 0.00 0.00
11:53 am 11:53 Sunny 74 23.3 35 1.7 24 24 E 7 11 29.82 1010 10 16 0.00 0.00
12:53 pm 12:53 Sunny 75 23.9 40 4.4 28 28 SE 10 17 29.80 1009 10 16 0.00 0.00
1:53 pm 13:53 Sunny 74 23.3 35 1.7 24 24 SE 12 19 29.78 1008 10 16 0.00 0.00
2:53 pm 14:53 Sunny 74 23.3 39 3.9 28 28 E 12 19 29.75 1008 10 16 0.00 0.00
3:53 pm 15:53 Sunny 74 23.3 39 3.9 28 28 ESE 9 15 29.75 1008 10 16 0.00 0.00
4:53 pm 16:53 Sunny 69 20.6 42 5.6 38 38 SE 7 11 29.77 1008 10 16 0.00 0.00
5:53 pm 17:53 Clear 57 13.9 43 6.1 60 60 ESE 8 13 29.80 1009 10 16 0.00 0.00
6:53 pm 18:53 Clear 54 12.2 41 5 62 62 E 8 13 29.82 1010 10 16 0.00 0.00
7:53 pm 19:53 Clear 50 10 41 5 71 71 E 8 13 29.81 1009 10 16 0.00 0.00
8:53 pm 20:53 Clear 47 8.3 41 5 80 80 ESE 9 15 29.80 1009 10 16 0.00 0.00
9:53 pm 21:53 Clear 46 7.8 40 4.4 79 79 ESE 9 15 29.78 1009 10 16 0.00 0.00
10:53 pm 22:53 Clear 48 8.9 41 5 77 77 E 8 13 29.75 1007 10 16 0.00 0.00
11:53 pm 23:53 Clear 48 8.9 41 5 77 77 E 6 9 29.74 1007 10 16 0.00 0.00

Powered by AerisWeather